Time,TemperatureF,DewpointF,PressureIn,WindDirection,WindDirectionDegrees,WindSpeedMPH,WindSpeedGustMPH,Humidity,HourlyPrecipIn,Conditions,Clouds,dailyrainin,SoftwareType,DateUTC
2013-06-05 02:13:00,50.5,48.8,30.08,WNW,284,0.0,0.0,94,0.00,,,0.00,Wunderground v.1.15,2013-06-05 06:13:00,
2013-06-05 02:50:00,50.3,48.9,30.08,WNW,284,0.0,0.0,95,0.00,,,0.00,Wunderground v.1.15,2013-06-05 06:50:00,
2013-06-05 02:56:00,50.1,48.4,30.08,WNW,284,0.0,0.0,94,0.00,,,0.00,Wunderground v.1.15,2013-06-05 06:56:00,
2013-06-05 03:03:00,50.1,48.7,30.08,WNW,284,0.0,0.0,95,0.00,,,0.00,Wunderground v.1.15,2013-06-05 07:03:00,
2013-06-05 03:09:00,50.3,48.9,30.08,WNW,284,0.0,0.0,95,0.00,,,0.00,Wunderground v.1.15,2013-06-05 07:09:00,
2013-06-05 03:16:00,50.5,49.1,30.08,WNW,284,0.0,0.0,95,0.00,,,0.00,Wunderground v.1.15,2013-06-05 07:16:00,
2013-06-05 06:22:00,49.4,48.3,30.13,WNW,284,0.0,0.0,96,0.00,,,0.00,Wunderground v.1.15,2013-06-05 10:22:00,
2013-06-05 06:29:00,49.6,48.5,30.13,WNW,284,0.0,0.0,96,0.00,,,0.00,Wunderground v.1.15,2013-06-05 10:29:00,
2013-06-05 06:35:00,50.1,49.0,30.13,WNW,284,0.0,0.0,96,0.00,,,0.00,Wunderground v.1.15,2013-06-05 10:35:00,
2013-06-05 07:21:00,54.0,52.9,30.14,WNW,284,0.0,0.0,96,0.00,,,0.00,Wunderground v.1.15,2013-06-05 11:21:00,
2013-06-05 07:27:00,54.3,53.2,30.14,WNW,284,0.0,0.0,96,0.00,,,0.00,Wunderground v.1.15,2013-06-05 11:27:00,
2013-06-05 07:34:00,54.7,53.6,30.14,WNW,284,0.0,0.0,96,0.00,,,0.00,Wunderground v.1.15,2013-06-05 11:34:00,
2013-06-05 07:40:00,54.9,53.5,30.14,WNW,284,0.0,0.0,95,0.00,,,0.00,Wunderground v.1.15,2013-06-05 11:40:00,
2013-06-05 07:47:00,55.1,53.7,30.15,WNW,284,0.0,0.0,95,0.00,,,0.00,Wunderground v.1.15,2013-06-05 11:47:00,
2013-06-05 07:53:00,55.5,54.1,30.15,WNW,284,0.0,0.0,95,0.00,,,0.00,Wunderground v.1.15,2013-06-05 11:53:00,
2013-06-05 08:00:00,56.2,54.8,30.14,WNW,284,0.0,0.0,95,0.00,,,0.00,Wunderground v.1.15,2013-06-05 12:00:00,
2013-06-05 08:06:00,56.7,55.0,30.14,WNW,284,0.0,0.0,94,0.00,,,0.00,Wunderground v.1.15,2013-06-05 12:06:00,
2013-06-05 08:52:00,60.6,55.7,30.14,WNW,284,1.0,1.0,84,0.00,,,0.00,Wunderground v.1.15,2013-06-05 12:52:00,
2013-06-05 08:58:00,60.8,55.9,30.15,WNW,284,0.0,1.0,84,0.00,,,0.00,Wunderground v.1.15,2013-06-05 12:58:00,
2013-06-05 10:21:00,67.1,57.4,30.13,WSW,240,0.0,4.0,71,0.00,,,0.00,Wunderground v.1.15,2013-06-05 14:21:00,
2013-06-05 10:29:00,67.7,58.0,30.13,West,259,1.0,4.0,71,0.00,,,0.00,Wunderground v.1.15,2013-06-05 14:29:00,
2013-06-05 10:35:00,68.6,57.6,30.13,SW,218,1.0,1.0,68,0.00,,,0.00,Wunderground v.1.15,2013-06-05 14:35:00,
2013-06-05 10:42:00,68.5,57.9,30.12,SSW,205,1.0,2.0,69,0.00,,,0.00,Wunderground v.1.15,2013-06-05 14:42:00,
2013-06-05 10:48:00,69.2,59.0,30.12,SSW,205,0.0,4.0,70,0.00,,,0.00,Wunderground v.1.15,2013-06-05 14:48:00,
2013-06-05 10:55:00,69.0,58.8,30.11,North,355,1.0,4.0,70,0.00,,,0.00,Wunderground v.1.15,2013-06-05 14:55:00,
2013-06-05 11:01:00,69.9,59.7,30.11,NNE,23,1.0,4.0,70,0.00,,,0.00,Wunderground v.1.15,2013-06-05 15:01:00,
2013-06-05 15:25:00,76.5,59.6,30.04,SE,128,5.0,5.0,56,0.00,,,0.00,Wunderground v.1.15,2013-06-05 19:25:00,
2013-06-05 15:33:00,76.8,58.9,30.04,ESE,114,4.0,5.0,54,0.00,,,0.00,Wunderground v.1.15,2013-06-05 19:33:00,
2013-06-05 15:40:00,77.1,58.6,30.04,SE,126,3.0,3.0,53,0.00,,,0.00,Wunderground v.1.15,2013-06-05 19:40:00,
2013-06-05 15:46:00,77.0,59.1,30.04,SSE,148,3.0,7.0,54,0.00,,,0.00,Wunderground v.1.15,2013-06-05 19:46:00,
2013-06-05 18:53:00,75.6,60.7,30.01,SSE,150,3.0,3.0,60,0.00,,,0.00,Wunderground v.1.15,2013-06-05 22:53:00,
2013-06-05 18:59:00,75.7,61.3,30.00,SE,146,2.0,9.0,61,0.00,,,0.00,Wunderground v.1.15,2013-06-05 22:59:00,
2013-06-05 19:05:00,75.7,61.8,30.00,SE,128,1.0,9.0,62,0.00,,,0.00,Wunderground v.1.15,2013-06-05 23:05:00,
2013-06-05 19:57:00,73.2,60.7,30.00,SSE,163,1.0,9.0,65,0.00,,,0.00,Wunderground v.1.15,2013-06-05 23:57:00,
2013-06-05 20:03:00,72.7,60.3,30.00,SSE,163,1.0,1.0,65,0.00,,,0.00,Wunderground v.1.15,2013-06-06 00:03:00,
2013-06-05 20:10:00,72.4,60.4,30.00,SSE,163,1.0,9.0,66,0.00,,,0.00,Wunderground v.1.15,2013-06-06 00:10:00,
2013-06-05 20:16:00,72.1,60.5,30.00,SSE,163,0.0,9.0,67,0.00,,,0.00,Wunderground v.1.15,2013-06-06 00:16:00,
2013-06-05 20:23:00,71.5,60.0,30.00,SSE,163,0.0,9.0,67,0.00,,,0.00,Wunderground v.1.15,2013-06-06 00:23:00,
2013-06-05 20:29:00,71.1,60.0,30.00,SSE,163,0.0,9.0,68,0.00,,,0.00,Wunderground v.1.15,2013-06-06 00:29:00,
2013-06-05 20:36:00,70.7,60.4,30.00,SSE,163,0.0,9.0,70,0.00,,,0.00,Wunderground v.1.15,2013-06-06 00:36:00,
2013-06-05 21:36:00,69.1,58.1,30.00,SSE,148,1.0,9.0,68,0.00,,,0.00,Wunderground v.1.15,2013-06-06 01:36:00,
2013-06-05 22:32:00,68.6,58.4,30.02,SSE,148,0.0,9.0,70,0.00,,,0.00,Wunderground v.1.15,2013-06-06 02:32:00,
2013-06-05 22:38:00,68.6,58.4,30.02,SSE,148,0.0,9.0,70,0.00,,,0.00,Wunderground v.1.15,2013-06-06 02:38:00,
2013-06-05 22:45:00,68.6,58.4,30.02,SSE,148,0.0,9.0,70,0.00,,,0.00,Wunderground v.1.15,2013-06-06 02:45:00,
2013-06-05 22:51:00,68.5,58.3,30.03,SSE,148,0.0,9.0,70,0.00,,,0.00,Wunderground v.1.15,2013-06-06 02:51:00,
2013-06-05 23:14:00,68.6,58.0,30.02,SSE,159,1.0,9.0,69,0.00,,,0.00,Wunderground v.1.15,2013-06-06 03:14:00,
2013-06-05 23:21:00,68.5,58.3,30.02,SSE,159,1.0,1.0,70,0.00,,,0.00,Wunderground v.1.15,2013-06-06 03:21:00,
2013-06-05 23:36:00,67.6,57.9,30.02,SSE,159,0.0,9.0,71,0.00,,,0.00,Wunderground v.1.15,2013-06-06 03:36:00,
2013-06-05 23:42:00,67.2,57.9,30.02,SSE,159,0.0,9.0,72,0.00,,,0.00,Wunderground v.1.15,2013-06-06 03:42:00,
2013-06-05 23:49:00,66.7,57.8,30.02,SSE,159,0.0,9.0,73,0.00,,,0.00,Wunderground v.1.15,2013-06-06 03:49:00,
2013-06-05 23:55:00,66.3,57.4,30.01,SSE,159,0.0,9.0,73,0.00,,,0.00,Wunderground v.1.15,2013-06-06 03:55:00,